World > North America > United States > Nebraska   Omaha, NE Website

Omaha, Nebraska Regional Weather

Lat: 41.26N, Lon: 96.01W
Wx Zone: NEZ052Web Search
Omaha Weather Warning NWS WEATHER ALERT FOR THE OMAHA, NE AREA - Issued: 1145 AM CDT Thu Oct 1 2020 Omaha Weather Warning  

Helpful Tip: Abbreviated, 7 Day, 14 Day Forecasts. There is a weather forecast for every taste.

Feedback
Omaha Weather Map
UTC Time: 10/1/2020, 19:02
Your Time:

Omaha, NE Regional Weather

Expires:202010011900;;652838
ASUS43 KEAX 011815
RWREAX

WEATHER ROUNDUP FOR EASTERN KANSAS AND NORTHWEST MISSOURI
NATIONAL WEATHER SERVICE KANSAS CITY/PLEASANT HILL MO
100 PM CDT THU OCT 01 2020


IAZ060-094-KSZ022-034>040-054-083-096-NEZ052-066-093-011900- 
...KANSAS...SOUTHEAST NEBRASKA AND IOWA...
  
CITY           SKY/WX    TMP DP  RH WIND       PRES   REMARKS
TOPEKA         SUNNY     62  35  36 N15       30.32S                  
6HR MIN TEMP:  45; 6HR MAX TEMP:  62;                                

MANHATTAN      SUNNY     62  32  32 N10G25    30.35F                  
EMPORIA        SUNNY     63  31  30 NW20G30   30.33F                  
OTTAWA         FAIR      64  32  29 NW18G29   30.29F                  
CHANUTE        SUNNY     67  35  30 NW14G33   30.30F                  
SALINA         SUNNY     63  31  30 NW20G31   30.38F                  
WICHITA        MOSUNNY   66  30  26 N23G32    30.35S                  
OMAHA          MOSUNNY   59  35  40 N20G31    30.30S                  
LINCOLN        MOSUNNY   61  34  36 NW21G30   30.35S                  
FALLS CITY     SUNNY     61  36  39 N13G26    30.30R                  
LAMONI         PTSUNNY   55  37  50 NW20G30   30.25R                  
DES MOINES     CLOUDY    55  38  52 NW17G29   30.24R                  

$$

  

SKY/WX - Weather  TMP - Temperature  DP - Dew Point  RH - Relative Humidity
WIND - Wind Direction/Speed PRES - Barometric Pressure VSB - Visibility
WCI - Wind Chill Index E13G22 Wind - East Wind 13 mph/Gusts of 22 mph